Track COSMOS 2139 (GLONASS) now! COSMOS 2139 (GLONASS) is classified as:
1 21216U 91025A 26016.85435008 -.00000053 00000-0 00000-0 0 9996 2 21216 64.4629 309.7165 0015789 224.2267 135.6659 2.13106163270705